Weather History for Palm Springs, CA

Change the Weather History Date:

Sunday, July 27, 2014

  Actual Average Record
Temperature  
Mean Temperature 91 °F 93 °F  
Max Temperature 99 °F 108 °F 119 °F (1980)
Min Temperature 83 °F 78 °F 63 °F (1940)
Degree Days  
Heating Degree Days 0 0  
Month to date heating degree days 0 0  
Since 1 June heating degree days 0 0  
Since 1 July heating degree days 0 0  
Cooling Degree Days 26 28  
Month to date cooling degree days 787 736  
Year to date cooling degree days 2640 2142  
Since 1 June cooling degree days 1530 1383  
Growing Degree Days 40 (Base 50)    
Moisture  
Dew Point 63 °F    
Average Humidity 40    
Maximum Humidity 52    
Minimum Humidity 28    
Precipitation  
Precipitation T in 0.02 in 0.07 in (1975)
Month to date precipitation 0.27 0.18  
Year to date precipitation 1.02 3.12  
Since 1 July precipitation 0.27 0.18  
Snow  
Snow 0.00 in - - ()
Month to date snowfall 0.0  
Year to date snowfall 0.0  
Since 1 July snowfall 0.0  
Snow Depth 0.00 in    
Sea Level Pressure  
Sea Level Pressure 29.91 in    
Wind  
Wind Speed 5 mph (ESE)    
Max Wind Speed 21 mph    
Max Gust Speed 27 mph    
Visibility 9 miles    
Events Rain    
T = Trace of Precipitation, MM = Missing Value Source: NWS Daily Summary

Daily Weather History Graph

Daily Weather History Graph

Search for Another Location

Airport:

Trip Planner

Search our weather history database for the weather conditions in past years. The results will help you decide how hot, cold, wet, or windy it might be!

Date:

Astronomy

Jul. 27, 2014 Rise Set
Actual Time 5:54 AM PDT 7:50 PM PDT
Civil Twilight 5:26 AM PDT 8:17 PM PDT
Nautical Twilight 4:53 AM PDT 8:51 PM PDT
Astronomical Twilight 4:17 AM PDT 9:27 PM PDT
Moon 6:40 AM PDT (7/27) 8:08 PM PDT (7/27)
Length of Visible Light 14h 51m
Length of Day
13h 55m
New Moon, 1% of the Moon is Illuminated
Jul 27
New Moon
Aug 3
First Quarter
Aug 10
Full
Aug 17
Last Quarter
Aug 25
New

Hourly Weather History & Observations

Time (PDT) Temp. Heat Index Dew Point Humidity Pressure Visibility Wind Dir Wind Speed Gust Speed Precip Events Conditions
1:53 AM 90.0 °F 87.7 °F 54.0 °F 29% 29.85 in 10.0 mi WNW 4.6 mph - N/A   Clear
2:53 AM 87.1 °F 85.9 °F 57.0 °F 36% 29.84 in 10.0 mi Calm Calm - N/A   Clear
3:53 AM 87.1 °F 85.9 °F 57.0 °F 36% 29.83 in 10.0 mi Calm Calm - N/A   Clear
4:53 AM 84.9 °F 84.2 °F 57.9 °F 40% 29.82 in 10.0 mi Calm Calm - N/A   Clear
5:53 AM 82.9 °F 83.3 °F 61.0 °F 47% 29.85 in 10.0 mi SSE 3.5 mph - N/A   Mostly Cloudy
6:53 AM 84.9 °F 83.7 °F 55.9 °F 37% 29.91 in 10.0 mi SSE 5.8 mph - N/A   Mostly Cloudy
7:53 AM 87.1 °F 86.5 °F 59.0 °F 39% 29.96 in 10.0 mi Calm Calm - N/A   Clear
8:53 AM 89.1 °F 94.1 °F 70.0 °F 53% 30.01 in 10.0 mi SSW 5.8 mph - N/A   Mostly Cloudy
9:53 AM 93.9 °F 98.6 °F 68.0 °F 43% 30.02 in 5.0 mi East 15.0 mph - N/A   Haze
10:10 AM 93.0 °F 97.4 °F 68.0 °F 44% 30.03 in 7.0 mi ESE 18.4 mph 27.6 mph N/A   Haze
10:53 AM 93.9 °F 97.5 °F 66.9 °F 41% 30.00 in 5.0 mi East 17.3 mph - N/A   Haze
11:00 AM 93.9 °F 97.5 °F 66.9 °F 41% 30.01 in 5.0 mi East 15.0 mph 24.2 mph N/A   Haze
11:53 AM 93.9 °F 95.6 °F 64.0 °F 37% 29.98 in 7.0 mi East 8.1 mph - N/A   Haze
12:00 PM 93.9 °F 95.6 °F 64.0 °F 37% 29.99 in 8.0 mi East 6.9 mph - N/A   Haze
12:16 PM 93.9 °F 95.6 °F 64.0 °F 37% 29.99 in 8.0 mi Variable 3.5 mph - N/A   Haze
12:53 PM 95.0 °F 97.0 °F 64.0 °F 36% 29.96 in 8.0 mi Variable 3.5 mph - N/A   Haze
1:53 PM 96.1 °F 98.3 °F 64.0 °F 35% 29.94 in 8.0 mi ESE 5.8 mph - N/A   Haze
2:53 PM 98.1 °F 99.1 °F 62.1 °F 30% 29.89 in 8.0 mi North 3.5 mph - N/A   Haze
3:53 PM 93.0 °F 100.1 °F 71.1 °F 49% 29.85 in 10.0 mi South 6.9 mph - 0.00 in Rain Light Rain
4:53 PM 96.1 °F 99.3 °F 66.0 °F 37% 29.84 in 10.0 mi West 3.5 mph - 0.00 in   Mostly Cloudy
5:53 PM 99.0 °F 100.5 °F 63.0 °F 30% 29.82 in 10.0 mi SE 4.6 mph - N/A   Mostly Cloudy
6:53 PM 98.1 °F 100.7 °F 64.0 °F 33% 29.82 in 10.0 mi North 5.8 mph - N/A   Clear
7:53 PM 97.0 °F 98.3 °F 63.0 °F 32% 29.83 in 10.0 mi Calm Calm - N/A   Mostly Cloudy
8:53 PM 95.0 °F 96.0 °F 63.0 °F 34% 29.86 in 10.0 mi Calm Calm - N/A   Mostly Cloudy
9:53 PM 93.9 °F 97.0 °F 66.0 °F 40% 29.89 in 10.0 mi SSE 5.8 mph - N/A   Partly Cloudy
10:53 PM 93.0 °F 95.9 °F 66.0 °F 41% 29.91 in 10.0 mi SE 4.6 mph - N/A   Clear
11:53 PM 93.0 °F 95.0 °F 64.9 °F 39% 29.92 in 10.0 mi NNW 5.8 mph - N/A   Clear